![]() |
EMODnet Physics ERDDAP
Easier access to scientific data |
log in|
Brought to you by EMODnet Physics |
| Dataset Title: | NDBC - Collection of dew point temperature (DEWT) TimeSeries - IN SITU MultiPointTimeSeriesObservation
|
| Institution: | NDBC (Dataset ID: TS_DEWT_NDBC) |
| Information: | Summary
| License
| FGDC
| ISO 19115
| Metadata
| Background
| Subset
| Data Access Form
| Make a graph
|
| Name | Last modified | Size | Description | |
|---|---|---|---|---|
| Parent Directory | - | - | ||
| 41048_TS_DEWT_012008.nc | 02-Jan-2025 08:04 | 1462702 | ||
| 41048_TS_DEWT_012009.nc | 02-Jan-2025 08:06 | 1470117 | ||
| 41048_TS_DEWT_012011.nc | 02-Jan-2025 08:09 | 1470849 | ||
| 41048_TS_DEWT_012012.nc | 02-Jan-2025 08:11 | 1474426 | ||
| 41048_TS_DEWT_012013.nc | 02-Jan-2025 08:13 | 1470957 | ||
| 41048_TS_DEWT_012014.nc | 02-Jan-2025 08:15 | 1470776 | ||
| 41048_TS_DEWT_012015.nc | 02-Jan-2025 08:17 | 1470592 | ||
| 41048_TS_DEWT_012016.nc | 02-Jan-2025 08:19 | 1473171 | ||
| 41048_TS_DEWT_012017.nc | 02-Jan-2025 08:21 | 1464887 | ||
| 41048_TS_DEWT_012018.nc | 02-Jan-2025 08:26 | 1470883 | ||
| 41048_TS_DEWT_012021.nc | 19-Jan-2026 06:01 | 1470748 | ||
| 41048_TS_DEWT_012022.nc | 19-Jan-2026 06:14 | 1474312 | ||
| 41048_TS_DEWT_022008.nc | 02-Jan-2025 08:04 | 1470628 | ||
| 41048_TS_DEWT_022009.nc | 02-Jan-2025 08:06 | 1470794 | ||
| 41048_TS_DEWT_022011.nc | 02-Jan-2025 08:09 | 1470362 | ||
| 41048_TS_DEWT_022012.nc | 02-Jan-2025 08:11 | 1626242 | ||
| 41048_TS_DEWT_022013.nc | 02-Jan-2025 08:13 | 1459874 | ||
| 41048_TS_DEWT_022014.nc | 02-Jan-2025 08:15 | 1154919 | ||
| 41048_TS_DEWT_022015.nc | 02-Jan-2025 08:17 | 1476703 | ||
| 41048_TS_DEWT_022016.nc | 02-Jan-2025 08:19 | 1465071 | ||
| 41048_TS_DEWT_022017.nc | 02-Jan-2025 08:22 | 1478674 | ||
| 41048_TS_DEWT_022018.nc | 02-Jan-2025 08:26 | 1627920 | ||
| 41048_TS_DEWT_022021.nc | 19-Jan-2026 06:02 | 1627579 | ||
| 41048_TS_DEWT_022022.nc | 19-Jan-2026 06:16 | 1627421 | ||
| 41048_TS_DEWT_032008.nc | 02-Jan-2025 08:04 | 1625786 | ||
| 41048_TS_DEWT_032009.nc | 02-Jan-2025 08:06 | 1626442 | ||
| 41048_TS_DEWT_032011.nc | 02-Jan-2025 08:09 | 1627298 | ||
| 41048_TS_DEWT_032012.nc | 02-Jan-2025 08:11 | 1627775 | ||
| 41048_TS_DEWT_032014.nc | 02-Jan-2025 08:16 | 1627541 | ||
| 41048_TS_DEWT_032015.nc | 02-Jan-2025 08:18 | 1627714 | ||
| 41048_TS_DEWT_032016.nc | 02-Jan-2025 08:20 | 1160186 | ||
| 41048_TS_DEWT_032017.nc | 02-Jan-2025 08:22 | 1627582 | ||
| 41048_TS_DEWT_032018.nc | 02-Jan-2025 08:27 | 1627839 | ||
| 41048_TS_DEWT_032021.nc | 19-Jan-2026 06:02 | 1470253 | ||
| 41048_TS_DEWT_032022.nc | 19-Jan-2026 06:17 | 1464603 | ||
| 41048_TS_DEWT_042008.nc | 02-Jan-2025 08:04 | 1477176 | ||
| 41048_TS_DEWT_042009.nc | 02-Jan-2025 08:06 | 1473802 | ||
| 41048_TS_DEWT_042010.nc | 02-Jan-2025 08:08 | 1477931 | ||
| 41048_TS_DEWT_042011.nc | 02-Jan-2025 08:10 | 1477993 | ||
| 41048_TS_DEWT_042012.nc | 02-Jan-2025 08:12 | 1478027 | ||
| 41048_TS_DEWT_042014.nc | 02-Jan-2025 08:16 | 1478000 | ||
| 41048_TS_DEWT_042015.nc | 02-Jan-2025 08:18 | 1477338 | ||
| 41048_TS_DEWT_042016.nc | 02-Jan-2025 08:20 | 1471315 | ||
| 41048_TS_DEWT_042017.nc | 02-Jan-2025 08:22 | 1162845 | ||
| 41048_TS_DEWT_042021.nc | 19-Jan-2026 06:03 | 1476951 | ||
| 41048_TS_DEWT_042022.nc | 19-Jan-2026 06:19 | 1477725 | ||
| 41048_TS_DEWT_052008.nc | 02-Jan-2025 08:04 | 1474290 | ||
| 41048_TS_DEWT_052009.nc | 02-Jan-2025 08:06 | 1478029 | ||
| 41048_TS_DEWT_052010.nc | 02-Jan-2025 08:08 | 1477857 | ||
| 41048_TS_DEWT_052011.nc | 02-Jan-2025 08:10 | 1477908 | ||
| 41048_TS_DEWT_052012.nc | 02-Jan-2025 08:12 | 1477248 | ||
| 41048_TS_DEWT_052013.nc | 02-Jan-2025 08:14 | 1626486 | ||
| 41048_TS_DEWT_052014.nc | 02-Jan-2025 08:16 | 1459170 | ||
| 41048_TS_DEWT_052015.nc | 02-Jan-2025 08:18 | 1476371 | ||
| 41048_TS_DEWT_052016.nc | 02-Jan-2025 08:20 | 1627465 | ||
| 41048_TS_DEWT_052017.nc | 02-Jan-2025 08:22 | 1627904 | ||
| 41048_TS_DEWT_052019.nc | 19-Jan-2026 05:42 | 1627852 | ||
| 41048_TS_DEWT_052020.nc | 19-Jan-2026 05:51 | 1627913 | ||
| 41048_TS_DEWT_052021.nc | 19-Jan-2026 06:04 | 1627509 | ||
| 41048_TS_DEWT_052022.nc | 19-Jan-2026 06:20 | 1627009 | ||
| 41048_TS_DEWT_052023.nc | 19-Jan-2026 06:29 | 1627549 | ||
| 41048_TS_DEWT_062008.nc | 02-Jan-2025 08:05 | 1478533 | ||
| 41048_TS_DEWT_062009.nc | 02-Jan-2025 08:07 | 1626402 | ||
| 41048_TS_DEWT_062010.nc | 02-Jan-2025 08:08 | 1626258 | ||
| 41048_TS_DEWT_062011.nc | 02-Jan-2025 08:10 | 1626870 | ||
| 41048_TS_DEWT_062012.nc | 02-Jan-2025 08:12 | 1627898 | ||
| 41048_TS_DEWT_062013.nc | 02-Jan-2025 08:14 | 1625398 | ||
| 41048_TS_DEWT_062014.nc | 02-Jan-2025 08:16 | 1627766 | ||
| 41048_TS_DEWT_062015.nc | 02-Jan-2025 08:18 | 1627695 | ||
| 41048_TS_DEWT_062016.nc | 02-Jan-2025 08:20 | 1475034 | ||
| 41048_TS_DEWT_062017.nc | 02-Jan-2025 08:23 | 1462243 | ||
| 41048_TS_DEWT_062019.nc | 19-Jan-2026 05:42 | 1471625 | ||
| 41048_TS_DEWT_062020.nc | 19-Jan-2026 05:52 | 1477776 | ||
| 41048_TS_DEWT_062021.nc | 19-Jan-2026 06:06 | 1477886 | ||
| 41048_TS_DEWT_062022.nc | 19-Jan-2026 06:21 | 1476821 | ||
| 41048_TS_DEWT_062023.nc | 19-Jan-2026 06:30 | 1478017 | ||
| 41048_TS_DEWT_072008.nc | 02-Jan-2025 08:05 | 1477690 | ||
| 41048_TS_DEWT_072009.nc | 02-Jan-2025 08:07 | 1477951 | ||
| 41048_TS_DEWT_072010.nc | 02-Jan-2025 08:08 | 1477782 | ||
| 41048_TS_DEWT_072011.nc | 02-Jan-2025 08:10 | 1476570 | ||
| 41048_TS_DEWT_072012.nc | 02-Jan-2025 08:12 | 1477978 | ||
| 41048_TS_DEWT_072013.nc | 02-Jan-2025 08:14 | 1477938 | ||
| 41048_TS_DEWT_072015.nc | 02-Jan-2025 08:18 | 1477974 | ||
| 41048_TS_DEWT_072016.nc | 02-Jan-2025 08:20 | 1477669 | ||
| 41048_TS_DEWT_072017.nc | 02-Jan-2025 08:23 | 1477977 | ||
| 41048_TS_DEWT_072019.nc | 19-Jan-2026 05:43 | 1477003 | ||
| 41048_TS_DEWT_072020.nc | 19-Jan-2026 05:53 | 1478063 | ||
| 41048_TS_DEWT_072021.nc | 19-Jan-2026 06:07 | 1464309 | ||
| 41048_TS_DEWT_072022.nc | 19-Jan-2026 06:23 | 1475750 | ||
| 41048_TS_DEWT_072023.nc | 19-Jan-2026 06:31 | 1626576 | ||
| 41048_TS_DEWT_082008.nc | 02-Jan-2025 08:05 | 1627831 | ||
| 41048_TS_DEWT_082009.nc | 02-Jan-2025 08:07 | 1625447 | ||
| 41048_TS_DEWT_082010.nc | 02-Jan-2025 08:08 | 1627822 | ||
| 41048_TS_DEWT_082011.nc | 02-Jan-2025 08:10 | 1627800 | ||
| 41048_TS_DEWT_082012.nc | 02-Jan-2025 08:12 | 1627849 | ||
| 41048_TS_DEWT_082013.nc | 02-Jan-2025 08:14 | 1477949 | ||
| 41048_TS_DEWT_082014.nc | 02-Jan-2025 08:16 | 1625810 | ||
| 41048_TS_DEWT_082015.nc | 02-Jan-2025 08:18 | 1627335 | ||
| 41048_TS_DEWT_082016.nc | 02-Jan-2025 08:21 | 1626590 | ||
| 41048_TS_DEWT_082017.nc | 02-Jan-2025 08:24 | 1627639 | ||
| 41048_TS_DEWT_082019.nc | 19-Jan-2026 05:44 | 1625878 | ||
| 41048_TS_DEWT_082020.nc | 19-Jan-2026 05:54 | 1476039 | ||
| 41048_TS_DEWT_082021.nc | 19-Jan-2026 06:08 | 1627874 | ||
| 41048_TS_DEWT_082023.nc | 19-Jan-2026 06:32 | 1627874 | ||
| 41048_TS_DEWT_092007.nc | 02-Jan-2025 08:03 | 1475506 | ||
| 41048_TS_DEWT_092008.nc | 02-Jan-2025 08:05 | 1471203 | ||
| 41048_TS_DEWT_092009.nc | 02-Jan-2025 08:07 | 1472853 | ||
| 41048_TS_DEWT_092010.nc | 02-Jan-2025 08:09 | 1627648 | ||
| 41048_TS_DEWT_092011.nc | 02-Jan-2025 08:11 | 1627837 | ||
| 41048_TS_DEWT_092012.nc | 02-Jan-2025 08:12 | 1627893 | ||
| 41048_TS_DEWT_092013.nc | 02-Jan-2025 08:15 | 1627839 | ||
| 41048_TS_DEWT_092014.nc | 02-Jan-2025 08:17 | 1626995 | ||
| 41048_TS_DEWT_092015.nc | 02-Jan-2025 08:19 | 1627819 | ||
| 41048_TS_DEWT_092016.nc | 02-Jan-2025 08:21 | 1626965 | ||
| 41048_TS_DEWT_092017.nc | 02-Jan-2025 08:24 | 1627739 | ||
| 41048_TS_DEWT_092019.nc | 19-Jan-2026 05:45 | 1627786 | ||
| 41048_TS_DEWT_092020.nc | 19-Jan-2026 05:55 | 1477853 | ||
| 41048_TS_DEWT_092021.nc | 19-Jan-2026 06:09 | 1627622 | ||
| 41048_TS_DEWT_092023.nc | 19-Jan-2026 06:33 | 1626205 | ||
| 41048_TS_DEWT_102007.nc | 02-Jan-2025 08:03 | 1627847 | ||
| 41048_TS_DEWT_102008.nc | 02-Jan-2025 08:05 | 1626995 | ||
| 41048_TS_DEWT_102009.nc | 02-Jan-2025 08:07 | 1627570 | ||
| 41048_TS_DEWT_102010.nc | 02-Jan-2025 08:09 | 1474718 | ||
| 41048_TS_DEWT_102011.nc | 02-Jan-2025 08:11 | 1476182 | ||
| 41048_TS_DEWT_102012.nc | 02-Jan-2025 08:13 | 1467515 | ||
| 41048_TS_DEWT_102013.nc | 02-Jan-2025 08:15 | 1475226 | ||
| 41048_TS_DEWT_102014.nc | 02-Jan-2025 08:17 | 1472563 | ||
| 41048_TS_DEWT_102015.nc | 02-Jan-2025 08:19 | 1478017 | ||
| 41048_TS_DEWT_102016.nc | 02-Jan-2025 08:21 | 1478031 | ||
| 41048_TS_DEWT_102017.nc | 02-Jan-2025 08:24 | 1478025 | ||
| 41048_TS_DEWT_102020.nc | 19-Jan-2026 05:57 | 1477582 | ||
| 41048_TS_DEWT_102021.nc | 19-Jan-2026 06:10 | 1473601 | ||
| 41048_TS_DEWT_112007.nc | 02-Jan-2025 08:03 | 1476786 | ||
| 41048_TS_DEWT_112008.nc | 02-Jan-2025 08:05 | 1477994 | ||
| 41048_TS_DEWT_112009.nc | 02-Jan-2025 08:07 | 1477728 | ||
| 41048_TS_DEWT_112010.nc | 02-Jan-2025 08:09 | 1477741 | ||
| 41048_TS_DEWT_112011.nc | 02-Jan-2025 08:11 | 1477807 | ||
| 41048_TS_DEWT_112012.nc | 02-Jan-2025 08:13 | 1477970 | ||
| 41048_TS_DEWT_112013.nc | 02-Jan-2025 08:15 | 1477986 | ||
| 41048_TS_DEWT_112014.nc | 02-Jan-2025 08:17 | 1477853 | ||
| 41048_TS_DEWT_112015.nc | 02-Jan-2025 08:19 | 1477460 | ||
| 41048_TS_DEWT_112016.nc | 02-Jan-2025 08:21 | 1626890 | ||
| 41048_TS_DEWT_112017.nc | 02-Jan-2025 08:25 | 1469105 | ||
| 41048_TS_DEWT_112020.nc | 19-Jan-2026 05:58 | 1473715 | ||
| 41048_TS_DEWT_112021.nc | 19-Jan-2026 06:12 | 1627888 | ||
| 41048_TS_DEWT_122007.nc | 02-Jan-2025 08:04 | 1627698 | ||
| 41048_TS_DEWT_122008.nc | 02-Jan-2025 08:06 | 1627877 | ||
| 41048_TS_DEWT_122009.nc | 02-Jan-2025 08:08 | 1627873 | ||
| 41048_TS_DEWT_122010.nc | 02-Jan-2025 08:09 | 1627318 | ||
| 41048_TS_DEWT_122011.nc | 02-Jan-2025 08:11 | 1627849 | ||
| 41048_TS_DEWT_122012.nc | 02-Jan-2025 08:13 | 1477749 | ||
| 41048_TS_DEWT_122013.nc | 02-Jan-2025 08:15 | 1627823 | ||
| 41048_TS_DEWT_122014.nc | 02-Jan-2025 08:17 | 1627617 | ||
| 41048_TS_DEWT_122015.nc | 02-Jan-2025 08:19 | 1627646 | ||
| 41048_TS_DEWT_122016.nc | 02-Jan-2025 08:21 | 1627363 | ||
| 41048_TS_DEWT_122017.nc | 02-Jan-2025 08:25 | 1626984 | ||
| 41048_TS_DEWT_122020.nc | 19-Jan-2026 05:59 | 1627494 | ||
| 41048_TS_DEWT_122021.nc | 19-Jan-2026 06:13 | 1627848 | ||